Terminal Aerodrome Forecast
Issued by NWS Midland/Odessa, TX

Home | Current Version | Previous Version | Text Only | Print | Product List | Glossary On
Versions: 1 2 3 4 5 6 7 8 9 10 11 12 13 14 15 16 17 18 19 20 21 22 23
000
FTUS44 KMAF 220500
TAFMAF
TAF
KMAF 220525Z 2206/2306 25015KT P6SM SCT250
     FM221500 30013KT P6SM SCT250
     FM221700 33013G20KT P6SM SCT250
     FM230000 23008KT P6SM SCT150 BKN250=

USA.gov is the U.S. government's official web portal to all federal, state and local government web resources and services.